Temp
26 25 25 23 23 23 24 23 22 24 21 17 18 15 14 14 15 15 14 14 14 15 15 16 16 16 16 16 16 16 16 16 16 16 16 17 17 17 18 18 18 19 18 19 18 19 19 18 18
25 25 24 20 21 23 23 22 20 20 18 18 17 17 15 13 14 14 14 15 15 15 15 15 16 16 16 16 16 16 16 16 16 16 16 16 16 16 16 17 17 18 18 18 18 18 18 19 18
25 24 21 21 20 20 20 20 20 20 20 20 16 14 14 14 14 15 15 16 15 15 15 16 16 15 16 16 16 16 16 16 16 16 16 16 17 16 16 16 16 16 17 17 18 18 18 18 19
25 23 20 21 19 19 19 18 19 20 19 18 15 13 14 15 15 16 16 16 16 15 15 15 15 15 15 16 16 16 16 16 16 16 16 16 16 17 17 16 16 15 15 16 16 17 17 18 18
25 20 20 19 19 19 17 19 17 17 16 15 16 13 14 15 16 16 16 16 15 15 15 15 15 15 15 15 15 15 15 15 15 16 16 16 16 16 17 17 16 16 16 15 15 16 16 17 17
22 20 20 18 18 19 17 17 17 16 16 16 15 14 14 16 15 16 15 15 15 15 14 14 14 13 13 13 14 14 14 14 14 14 14 15 16 16 16 16 16 16 16 16 15 15 15 15 16
23 21 20 18 17 17 18 17 15 15 15 14 16 14 14 14 15 15 15 15 15 15 14 14 14 13 13 13 13 13 13 13 13 13 13 13 13 13 14 15 15 15 16 15 15 15 16 16 16
20 20 21 18 18 17 16 16 15 14 13 16 15 12 13 14 15 15 15 15 15 14 14 13 13 13 13 12 12 12 12 12 12 12 12 12 11 12 13 13 14 15 15 15 15 15 15 16 16
21 17 18 20 19 16 16 16 15 15 14 14 13 13 14 15 15 15 15 14 14 14 13 13 13 13 12 12 12 12 11 11 11 11 11 11 11 11 12 12 12 14 14 15 15 15 15 15 15
18 17 19 19 16 14 14 15 14 13 13 12 13 13 15 15 14 14 13 13 13 13 13 13 13 12 12 12 12 12 11 11 11 11 11 11 10 10 10 11 11 12 13 14 14 14 14 14 15
19 17 18 16 15 15 14 13 14 13 12 13 12 12 13 13 13 13 13 13 13 13 12 12 12 12 12 12 12 11 11 11 11 11 11 10 10 10 10 10 11 12 12 12 14 14 14 14 14
18 17 18 17 17 16 14 14 12 12 13 12 12 13 13 11 12 12 12 12 12 12 12 12 11 11 11 11 11 11 10 10 10 11 10 10 10 10 10 10 10 10 11 12 12 14 14 14 14
16 16 15 15 15 14 14 12 12 12 12 13 13 12 10 11 12 12 12 12 12 12 11 11 10 10 10 9 9 10 9 9 10 10 10 10 10 10 10 10 10 10 11 11 12 13 13 13 13
17 16 15 15 15 14 13 13 14 12 12 11 11 9 10 11 11 12 12 11 11 11 10 10 10 9 9 9 8 8 8 8 8 9 9 9 9 9 9 9 10 10 10 11 11 12 13 13 13
16 15 15 14 14 14 14 12 11 12 11 11 9 7 9 10 11 11 11 10 10 10 10 9 9 8 8 8 8 8 7 7 8 8 8 8 9 9 9 9 9 9 10 10 10 11 12 13 12
18 16 16 15 15 14 14 11 12 11 11 9 8 7 7 9 10 11 11 10 10 10 9 9 7 7 7 7 6 6 6 7 7 7 7 7 8 8 8 9 9 9 9 9 10 10 10 12 12
17 18 18 17 16 14 13 11 12 12 10 9 7 7 7 7 9 10 10 10 9 9 8 7 6 5 5 4 4 5 5 6 6 6 6 6 6 7 7 8 7 8 8 9 9 10 9 11 12
17 18 18 18 15 12 10 10 11 11 9 8 6 5 6 7 8 10 10 9 9 8 7 5 5 5 4 3 3 4 4 4 4 4 4 4 4 5 6 6 7 8 8 8 8 9 9 9 12
17 17 17 17 14 12 10 10 11 11 9 7 7 7 6 6 9 9 9 8 8 7 5 4 4 4 3 3 3 3 3 3 3 3 3 3 3 3 3 4 6 7 7 7 8 8 8 9 9
18 17 15 16 13 11 10 10 12 9 10 9 7 6 5 7 8 9 8 8 7 6 4 4 4 4 3 3 2 2 2 3 3 3 3 3 3 3 3 3 4 5 6 6 7 7 8 8 9
16 15 15 15 12 11 10 10 9 10 9 8 7 5 7 7 8 8 8 7 6 5 4 4 3 3 2 2 2 2 2 2 2 2 2 2 2 2 3 3 2 3 5 6 7 7 7 7 8
15 16 14 14 13 12 11 10 9 7 7 7 6 6 7 7 8 8 7 7 6 5 4 3 2 2 2 2 2 2 2 2 2 2 2 2 2 2 2 2 2 3 4 5 6 7 7 8 7
15 14 13 14 13 13 13 8 6 6 7 7 7 6 7 7 7 7 7 6 5 5 4 3 3 2 2 2 2 2 2 2 2 2 2 2 2 2 2 2 2 2 3 4 5 6 6 7 7
14 13 13 12 12 12 11 11 5 5 6 6 6 6 7 7 7 7 7 6 5 4 4 3 3 2 3 3 2 3 3 3 3 3 3 3 3 2 2 2 2 2 2 3 4 6 6 7 7
12 10 12 15 12 13 10 7 6 7 7 6 6 6 7 7 6 6 6 5 5 4 3 3 2 2 3 3 3 3 3 3 3 3 2 2 2 2 2 2 2 2 2 3 3 5 6 6 6
12 10 10 15 12 10 9 7 7 8 6 6 6 7 7 6 6 6 6 5 4 4 3 2 2 2 2 2 3 3 3 3 2 2 1 2 2 2 3 3 2 2 2 2 3 3 4 6 6
12 9 11 10 9 7 7 7 9 7 6 6 6 6 6 6 6 6 5 5 4 3 2 2 2 2 2 2 3 3 3 2 2 2 1 1 1 2 3 4 2 2 2 2 2 3 3 5 5
11 11 10 6 6 8 7 6 4 5 5 5 5 5 6 5 5 6 5 4 3 3 2 2 2 2 2 2 3 3 3 3 2 2 1 1 2 3 2 2 2 2 2 3 2 2 3 3 4
8 8 7 6 5 4 4 6 6 4 5 5 5 5 5 5 5 5 5 4 3 3 2 2 2 2 2 3 3 3 3 3 2 1 1 2 3 3 2 2 2 2 2 3 3 3 3 3 3
9 9 5 3 5 2 0 4 6 4 5 5 5 5 5 5 5 5 4 3 3 2 2 2 2 2 3 3 2 2 2 2 2 1 1 1 2 3 3 3 2 2 2 3 3 3 3 3 2
Height
792 792 790 791 816 820 838 841 826 822 829 847 829 840 862 866 869 876 875 871 868 864 860 855 852 848 844 840 837 834 832 829 826 823 821 817 814 812 809 807 805 805 804 804 803 802 803 803 803
792 792 792 800 834 842 848 847 849 840 839 835 841 850 856 872 872 875 874 870 868 865 861 857 854 850 846 842 839 836 833 830 828 825 823 820 816 813 810 808 806 804 803 802 802 801 800 800 801
792 792 800 818 843 862 861 854 849 840 836 834 849 857 865 874 875 874 872 869 868 865 861 858 854 851 848 844 841 837 834 831 829 826 824 821 818 815 812 809 807 804 802 801 800 799 798 797 798
791 794 805 840 862 862 859 858 843 835 838 841 853 867 873 874 872 872 871 869 867 866 861 859 856 853 848 845 842 838 835 831 828 825 824 821 819 816 813 811 808 805 803 801 799 798 797 795 796
792 803 835 859 865 863 864 856 851 848 854 856 854 877 875 874 874 873 872 870 868 865 862 860 857 852 848 845 842 838 835 832 829 825 822 820 818 816 813 810 808 806 804 801 800 797 796 794 793
803 808 847 866 866 862 863 861 858 856 860 860 864 871 877 876 874 874 873 871 868 865 862 859 855 852 848 844 841 837 834 831 829 825 821 819 816 815 811 808 807 806 803 800 798 797 796 793 792
804 821 845 861 865 866 863 858 865 867 866 867 863 873 881 878 877 875 873 870 867 863 861 857 855 851 846 842 839 836 833 830 826 824 821 819 817 811 809 806 805 803 801 798 796 795 794 792 791
804 821 845 857 863 869 864 866 872 869 875 869 870 883 886 882 877 874 871 868 865 862 859 856 853 848 844 840 838 834 831 829 826 822 819 816 812 809 807 805 803 800 798 795 794 793 792 790 789
802 846 861 853 856 865 863 868 873 876 876 877 878 882 883 879 876 872 868 867 864 861 858 854 851 847 843 838 835 830 827 824 821 816 814 812 808 805 802 801 799 797 794 792 790 789 789 788 786
821 852 853 848 857 869 868 868 874 882 882 884 882 881 881 878 876 873 870 866 862 859 854 853 850 844 840 835 832 827 823 819 815 811 810 806 804 802 800 797 795 793 791 789 787 786 786 785 783
832 852 852 858 860 863 871 873 875 881 887 886 886 884 880 878 875 873 871 868 864 861 857 852 846 842 837 833 828 824 819 815 810 807 805 802 800 798 796 792 791 788 786 783 784 783 781 781 780
846 852 850 857 860 863 872 876 883 883 887 886 885 883 881 880 879 876 872 867 863 859 853 848 843 838 834 830 824 819 815 812 806 804 801 796 795 793 790 788 786 784 782 780 778 778 777 777 776
849 856 859 862 864 869 873 881 883 889 888 886 885 884 884 882 879 876 872 867 862 856 851 846 840 835 828 825 819 814 810 806 803 799 796 792 790 786 785 781 780 780 778 776 773 773 772 772 773
845 856 865 865 867 873 876 884 882 892 888 888 888 889 886 883 880 875 870 864 859 854 847 840 833 828 823 818 813 809 804 801 797 794 791 789 785 782 778 775 775 774 774 772 770 771 768 768 768
852 865 867 870 870 877 871 891 895 893 890 893 895 893 888 884 879 874 868 862 855 849 841 836 830 825 819 813 808 803 798 794 790 787 784 782 779 776 774 771 768 767 768 767 766 764 764 763 764
853 861 871 867 868 872 873 901 896 894 894 900 897 893 887 882 876 871 865 858 850 845 839 835 829 822 815 810 804 797 792 788 784 782 779 776 774 770 768 763 762 761 762 761 760 759 759 757 757
860 863 863 866 866 873 880 901 898 895 898 899 897 892 887 881 874 868 862 856 849 843 837 831 826 818 812 806 798 792 788 784 780 776 773 770 767 765 762 758 756 754 752 753 754 754 754 753 752
866 863 861 865 871 881 892 901 897 897 898 900 898 895 888 881 874 867 861 854 848 843 836 830 822 816 809 802 795 790 785 780 775 771 767 764 761 758 754 751 748 747 747 746 747 748 748 750 747
860 863 868 865 873 885 896 900 897 898 900 901 898 891 889 882 873 867 861 855 846 840 834 827 818 812 805 798 792 786 780 774 768 764 761 757 754 750 747 744 741 740 739 739 739 741 742 742 742
856 864 875 869 876 886 899 899 895 901 901 901 899 895 889 880 871 865 858 851 845 839 833 824 817 811 804 797 790 783 775 769 763 757 753 749 746 742 740 737 735 733 732 732 733 733 734 734 736
865 871 874 876 882 887 897 904 907 903 903 900 896 896 887 880 870 862 855 849 844 837 830 824 817 810 802 795 786 778 771 763 757 751 746 742 738 734 731 728 727 725 725 724 725 725 726 728 730
873 863 867 868 877 887 886 905 909 914 908 903 901 892 886 879 871 864 857 850 843 837 831 824 817 809 801 792 784 776 767 759 752 745 739 734 730 726 723 720 718 717 717 715 717 719 720 722 725
869 863 863 862 872 874 884 915 927 916 910 904 899 894 886 879 873 865 858 852 845 837 830 823 816 807 799 790 782 773 764 756 746 739 732 727 722 717 714 712 710 709 709 709 710 712 714 716 719
866 864 864 871 877 886 889 893 935 925 918 909 902 894 886 877 871 865 859 852 843 835 828 820 813 805 797 788 779 770 762 750 741 733 726 719 713 709 705 702 701 701 701 702 704 705 707 709 712
877 885 890 875 889 885 898 915 932 919 916 913 905 896 887 880 873 865 856 847 840 833 826 820 813 803 794 786 776 767 758 749 739 731 723 715 709 703 697 693 692 693 694 696 698 700 702 705 707
892 903 914 888 900 908 900 924 923 914 915 911 904 895 888 881 875 868 860 851 843 836 829 821 813 802 794 785 775 766 757 747 738 730 721 713 705 697 689 683 685 688 689 689 691 695 698 700 701
895 913 905 912 919 931 919 918 911 913 913 909 901 893 887 881 874 865 858 852 844 836 830 823 813 804 795 785 775 765 755 745 735 726 717 709 701 693 684 678 683 685 686 687 688 690 692 695 698
904 907 912 933 952 929 923 926 935 925 919 909 901 894 887 881 873 866 859 852 846 839 832 824 814 805 795 784 775 765 755 745 735 724 714 706 698 693 688 685 684 684 684 684 686 687 689 691 694
922 924 931 939 948 968 962 926 924 932 920 911 905 899 893 884 876 868 861 855 849 841 832 822 812 803 794 784 775 766 756 746 737 727 717 707 700 695 691 688 686 684 684 684 683 684 687 688 690
921 926 942 963 951 966 981 945 924 926 917 914 908 902 895 888 880 871 864 856 848 839 831 822 813 804 795 787 777 768 759 749 739 730 720 711 703 697 694 690 688 686 685 684 683 683 684 685 687
Wind_Speed
10 7 4 3 4 6 7 6 5 6 5 9 16 15 17 13 5 3 7 8 11 18 17 24 23 24 25 25 26 25 25 25 26 25 25 24 24 23 15 11 10 9 9 9 8 8 8 7 6
10 4 3 2 5 3 4 8 15 13 8 10 11 7 8 6 6 5 4 8 9 16 19 21 22 23 23 24 23 23 23 24 24 24 24 23 23 23 22 20 16 10 9 10 10 11 11 11 9
8 1 3 4 4 3 3 5 3 9 12 4 6 7 4 5 4 2 2 8 12 17 18 20 22 22 22 22 23 24 23 22 23 23 22 22 21 20 21 21 20 17 12 9 8 10 12 12 13
3 4 4 5 9 7 3 7 5 2 11 14 8 9 4 4 2 1 6 10 14 15 19 19 20 21 22 23 23 23 22 23 23 22 23 22 22 20 18 18 18 17 17 14 9 6 9 10 12
3 3 6 6 7 3 6 6 14 15 7 14 3 3 5 1 1 3 6 9 13 18 20 20 20 22 22 23 24 23 23 23 24 22 22 22 22 21 18 17 17 16 16 15 14 13 12 7 7
4 3 4 4 6 3 4 6 14 15 13 4 8 6 4 7 5 8 13 16 17 20 19 21 24 22 23 24 25 23 24 25 26 24 24 24 23 22 20 20 20 17 18 15 15 14 14 13 14
4 4 4 7 6 2 5 4 9 11 8 12 5 5 3 16 19 16 15 17 19 23 24 26 29 30 31 30 25 25 25 26 26 26 25 24 24 23 21 22 21 20 19 17 15 14 14 14 14
4 4 4 5 2 3 6 4 10 8 9 3 6 6 4 8 15 17 19 21 23 25 25 27 28 30 30 31 28 25 25 26 26 24 24 26 25 27 25 22 24 20 22 19 17 16 15 14 15
4 5 3 3 6 5 2 4 7 5 10 11 4 4 2 14 18 21 21 21 21 22 23 25 27 29 29 30 31 30 29 30 30 29 29 30 31 32 30 24 23 23 23 21 19 16 15 12 14
5 4 2 2 5 5 5 8 6 5 6 7 7 11 13 14 15 17 17 21 25 29 28 29 30 29 29 30 32 31 32 35 32 30 31 32 32 31 26 27 26 23 22 21 18 17 17 17 15
5 4 3 6 16 16 12 11 3 7 6 3 4 3 8 13 20 21 20 21 23 24 28 27 28 30 28 28 29 30 31 31 32 33 32 33 32 31 32 34 29 28 24 24 24 22 22 21 18
7 7 5 8 4 5 5 5 7 7 5 6 4 4 11 16 14 17 20 24 23 28 28 30 28 27 34 32 30 29 27 29 30 32 33 34 32 30 36 30 30 30 27 27 27 25 24 20 16
9 4 7 12 14 10 13 8 9 6 6 9 11 15 12 14 16 22 26 24 24 30 29 32 31 36 33 29 35 31 32 34 33 29 29 30 32 38 37 33 30 28 25 26 26 24 21 19 17
6 12 14 7 9 7 13 5 5 5 5 9 10 10 13 17 17 23 29 27 27 28 34 35 37 36 29 39 30 33 33 32 30 30 30 31 36 31 35 33 33 29 28 28 27 26 14 13 13
16 8 6 6 6 6 15 10 5 1 9 10 10 9 10 14 21 24 29 27 28 35 35 41 32 36 36 31 34 33 34 31 32 31 32 31 27 35 33 33 34 29 27 24 26 26 29 23 16
5 5 3 7 7 6 3 2 3 4 8 7 8 8 8 13 23 27 31 32 34 34 36 34 32 33 33 33 32 34 33 34 33 30 32 31 30 28 32 37 31 27 26 25 26 23 26 21 20
4 2 3 3 2 4 4 4 3 2 8 7 7 8 9 10 21 27 31 32 34 34 34 28 37 33 28 35 32 30 30 28 31 30 28 26 27 29 32 32 34 38 34 27 24 27 24 31 24
4 2 3 4 2 9 11 6 4 5 7 5 8 9 9 13 14 28 31 33 35 32 25 36 33 30 34 33 30 29 27 26 28 33 32 32 33 33 33 35 36 34 34 29 26 27 28 24 24
3 3 4 1 5 6 7 7 7 4 5 9 8 12 11 13 21 25 29 32 28 30 35 35 35 34 34 30 28 28 27 28 27 27 30 30 29 31 31 27 30 35 33 34 33 30 29 29 26
3 4 4 2 7 7 5 5 2 6 4 4 8 9 10 14 17 28 32 34 29 33 35 35 35 34 32 30 30 27 27 29 29 29 27 27 29 29 29 25 25 29 31 30 34 32 28 27 22
4 6 3 6 6 8 9 3 5 4 4 7 10 8 12 16 19 24 33 33 34 34 35 36 36 34 34 34 32 30 29 27 25 24 26 28 27 30 28 30 29 28 28 29 31 30 20 14 15
4 3 8 6 6 4 4 2 3 7 8 12 10 14 15 17 17 27 29 32 34 33 32 35 35 35 35 36 33 32 28 26 28 29 29 31 30 30 30 30 28 28 25 30 29 25 22 19 17
7 13 3 4 5 4 3 4 6 5 10 17 17 15 16 17 17 21 29 32 32 32 32 34 35 37 36 35 32 31 30 31 29 30 30 30 30 29 30 29 27 27 27 24 27 28 27 27 23
13 5 6 4 3 2 4 4 3 6 9 14 14 16 16 18 21 28 29 32 33 34 36 35 37 39 37 36 35 32 33 34 31 31 30 28 28 27 28 28 26 26 25 25 26 27 25 24 26
10 6 4 4 5 4 1 6 4 6 7 8 14 16 18 15 19 22 29 34 36 37 38 36 38 39 37 38 38 34 35 34 32 31 29 31 27 26 26 27 24 23 21 23 19 23 27 28 30
5 4 4 4 3 5 4 4 3 2 6 9 12 15 17 19 18 20 29 30 31 34 36 37 39 39 38 40 39 37 36 34 32 31 32 29 28 29 33 28 23 20 20 13 16 19 19 22 24
5 5 1 1 2 2 3 4 2 18 16 15 17 17 17 20 20 22 32 33 32 34 34 36 38 38 37 40 37 38 37 36 35 35 31 29 29 31 30 10 10 12 13 14 13 17 18 18 15
6 2 2 4 4 5 4 1 4 14 15 17 19 20 19 20 20 23 29 34 33 35 33 36 36 35 37 38 37 37 38 37 37 35 34 31 27 23 17 9 6 7 9 10 14 16 15 14 16
6 4 5 5 3 3 3 3 2 8 12 17 17 17 19 20 20 21 31 31 30 33 35 36 35 37 37 35 39 37 38 36 38 37 38 38 25 20 16 11 7 3 5 8 9 8 15 12 16
3 3 3 4 5 1 3 5 2 6 14 14 15 16 18 18 19 24 31 30 29 33 36 36 35 35 36 37 38 36 37 34 36 37 37 38 35 21 17 11 6 5 5 6 7 8 9 11 13
Wind_Direction
341 337 320 52 57 65 35 29 0 5 69 55 60 77 97 52 38 108 316 346 2 16 14 15 12 15 17 20 21 22 18 16 14 9 7 4 5 7 358 335 304 285 278 273 265 259 243 237 235
340 11 60 78 70 66 67 13 45 30 120 129 63 60 57 82 61 121 266 26 13 13 18 14 13 13 13 14 14 13 13 12 11 8 7 3 1 358 1 357 359 316 291 276 265 257 253 245 235
334 320 78 72 57 54 99 331 309 69 55 21 105 56 48 7 105 171 315 23 23 27 27 19 13 10 8 10 7 7 360 359 0 0 0 0 358 356 353 350 355 355 359 327 293 277 260 255 249
337 23 37 74 87 16 82 335 298 348 28 33 92 66 62 7 162 156 45 30 33 21 18 10 1 356 360 358 356 353 352 355 350 348 344 348 350 350 345 347 346 348 352 335 330 314 270 271 260
58 61 59 86 66 79 41 37 44 56 92 48 93 100 108 270 68 10 7 2 20 18 9 6 358 354 349 346 343 344 342 341 340 337 335 333 333 335 338 336 332 337 337 335 335 314 293 291 254
44 97 95 101 87 135 98 52 50 61 49 112 86 112 57 352 316 5 27 32 25 15 9 0 359 357 354 350 345 343 338 336 336 335 333 325 321 318 319 323 324 316 321 323 321 320 318 305 284
98 78 94 130 142 63 0 75 32 54 44 23 97 81 92 32 47 45 20 6 358 356 354 350 346 345 343 342 341 335 333 332 331 327 327 329 329 329 318 310 311 307 311 313 310 308 309 311 308
93 78 69 32 112 90 8 92 52 54 31 109 33 45 33 355 27 8 0 356 352 352 350 347 343 342 340 340 336 333 331 331 328 323 322 323 324 323 323 316 303 305 305 299 303 304 304 304 307
74 62 51 151 161 157 225 121 42 53 77 55 67 102 73 26 10 2 355 353 352 350 345 343 341 338 335 334 330 330 326 326 326 326 324 322 322 321 318 316 317 302 301 293 289 293 305 301 288
70 88 152 6 101 103 64 75 85 77 55 44 46 37 35 20 6 357 353 348 349 346 347 340 332 331 328 325 322 322 320 320 320 320 320 322 318 320 319 315 307 311 303 294 290 285 290 291 291
38 110 116 63 111 101 90 65 95 119 50 84 91 29 10 1 5 9 359 349 339 344 338 335 330 326 324 322 318 314 311 312 312 312 312 314 313 310 314 313 311 303 306 302 285 288 288 285 284
95 36 108 166 131 99 86 89 80 74 99 115 103 39 11 7 1 358 347 342 345 341 335 336 334 331 326 316 316 319 316 313 307 303 303 305 304 304 309 308 309 306 301 304 296 280 278 271 272
88 118 58 99 91 84 101 88 92 74 88 71 41 23 14 1 354 356 346 335 338 339 340 336 331 329 324 327 320 314 313 307 300 297 298 298 297 299 300 300 300 302 303 301 302 279 275 264 260
115 108 120 111 100 107 103 67 88 11 55 37 31 8 1 354 346 340 340 339 336 341 332 337 331 332 321 324 322 318 311 312 305 299 294 293 289 295 297 298 294 291 300 301 296 284 267 261 258
121 102 87 143 142 131 110 44 73 10 54 35 17 0 340 339 345 337 339 339 334 340 340 334 329 327 322 323 321 318 311 308 304 303 303 297 288 292 289 291 296 289 293 292 302 290 266 255 259
90 118 144 209 169 181 43 123 58 56 66 30 9 335 327 330 338 340 343 337 342 337 336 330 335 336 329 324 324 317 310 309 308 307 302 296 293 288 289 286 281 282 289 295 289 296 272 254 253
19 213 123 112 179 100 61 141 116 74 69 23 335 338 329 327 333 338 339 340 341 339 335 345 337 337 340 331 326 321 319 316 311 307 307 304 298 292 287 278 284 285 286 283 282 281 294 265 252
272 16 63 95 122 59 96 122 161 67 72 349 343 324 331 338 330 337 342 343 339 341 349 341 338 339 336 332 326 322 319 315 307 308 307 300 296 291 282 276 277 278 279 271 273 279 277 271 244
227 116 60 322 149 93 112 130 166 77 50 14 351 356 337 317 323 339 343 346 343 349 345 343 341 341 337 331 325 321 315 311 304 300 301 297 296 296 289 286 278 274 268 273 270 269 274 274 258
47 118 33 354 113 93 141 142 162 63 13 346 346 334 315 334 339 345 348 347 354 350 347 346 345 340 336 330 324 315 309 306 300 296 293 291 290 287 283 281 280 270 262 257 266 262 255 262 265
353 115 153 208 99 52 128 53 44 338 345 348 358 310 332 344 342 345 347 349 352 351 350 346 341 338 337 332 327 322 316 310 307 304 297 293 290 289 279 278 275 273 266 258 263 255 228 238 259
316 160 303 217 150 202 198 274 359 340 330 357 342 349 340 340 346 348 346 349 350 347 345 347 341 338 337 335 331 326 318 312 310 305 302 296 292 288 284 277 267 268 267 261 257 249 248 246 247
259 318 269 158 147 112 149 82 306 324 344 353 347 339 340 342 346 346 346 347 345 347 346 346 344 341 338 336 332 327 319 314 310 307 302 300 293 287 283 279 267 264 260 257 251 248 246 253 243
319 7 34 55 90 57 328 143 324 358 326 337 343 339 340 345 347 345 346 347 348 350 350 350 347 341 340 338 338 335 333 329 325 322 315 307 298 289 280 273 269 259 257 251 253 255 247 244 241
7 37 358 354 5 233 156 59 217 295 324 321 332 337 343 348 347 344 348 350 351 351 351 349 345 338 338 341 339 337 337 335 330 326 320 316 309 301 290 274 262 258 256 251 248 246 247 249 248
0 64 109 273 293 295 349 144 200 242 318 334 338 341 345 348 345 345 348 349 348 350 353 349 345 336 341 340 338 339 343 340 337 330 327 318 314 308 302 280 250 266 254 275 231 236 242 248 242
333 32 272 87 353 10 290 341 340 359 351 345 344 348 348 349 345 345 349 350 349 351 352 349 343 342 343 340 343 343 342 338 335 333 328 324 322 325 343 309 250 273 260 257 261 232 231 233 241
82 312 9 17 32 317 306 308 281 337 338 346 347 349 347 345 345 346 351 349 350 352 350 348 345 342 343 340 345 343 341 344 347 346 343 339 342 345 2 354 322 291 256 261 250 256 228 224 226
351 14 31 108 97 179 303 266 30 291 342 343 341 343 347 343 344 345 348 348 347 352 353 348 347 348 347 344 348 347 347 351 355 356 356 357 3 6 1 1 345 310 284 276 267 234 243 229 223
71 91 99 109 282 120 154 279 133 309 360 342 336 343 343 342 341 345 346 346 346 354 353 347 346 347 350 352 350 350 351 355 359 359 359 2 3 6 1 357 351 330 312 293 265 249 228 223 232